TimeAKDT,TemperatureF,Dew PointF,Humidity,Sea Level PressureIn,VisibilityMPH,Wind Direction,Wind SpeedMPH,Gust SpeedMPH,PrecipitationIn,Events,Conditions,WindDirDegrees,DateUTC
12:16 AM,42.8,37.4,81,30.27,4.0,Calm,Calm,-,N/A,,Overcast,0,2013-07-10 08:16:00
12:36 AM,42.8,37.4,81,30.27,1.2,SSW,3.5,-,N/A,,Overcast,200,2013-07-10 08:36:00
12:56 AM,42.8,37.4,81,30.27,4.0,SSW,4.6,-,N/A,,Overcast,210,2013-07-10 08:56:00
1:16 AM,42.8,37.4,81,30.27,1.2,SSW,3.5,-,N/A,,Overcast,210,2013-07-10 09:16:00
1:36 AM,42.8,37.4,81,30.26,0.8,Calm,Calm,-,N/A,,Overcast,0,2013-07-10 09:36:00
1:56 AM,42.8,37.4,81,30.26,2.0,SW,3.5,-,N/A,,Overcast,230,2013-07-10 09:56:00
2:16 AM,42.8,37.4,81,30.26,1.0,Calm,Calm,-,N/A,,Overcast,0,2013-07-10 10:16:00
2:36 AM,42.8,37.4,81,30.26,0.5,Calm,Calm,-,N/A,,Overcast,0,2013-07-10 10:36:00
2:56 AM,42.8,37.4,81,30.26,0.5,Calm,Calm,-,N/A,,Overcast,0,2013-07-10 10:56:00
3:16 AM,42.8,37.4,81,30.26,0.5,Calm,Calm,-,N/A,,Overcast,0,2013-07-10 11:16:00
3:36 AM,42.8,37.4,81,30.26,0.5,Calm,Calm,-,N/A,,Overcast,0,2013-07-10 11:36:00
3:56 AM,42.8,37.4,81,30.25,0.5,Calm,Calm,-,N/A,,Overcast,0,2013-07-10 11:56:00
4:16 AM,42.8,37.4,81,30.25,0.5,Calm,Calm,-,N/A,,Overcast,0,2013-07-10 12:16:00
4:36 AM,42.8,37.4,81,30.25,0.8,Calm,Calm,-,N/A,,Overcast,0,2013-07-10 12:36:00
4:56 AM,42.8,37.4,81,30.24,0.8,Calm,Calm,-,N/A,,Overcast,0,2013-07-10 12:56:00
5:16 AM,41.0,35.6,81,30.25,0.8,Calm,Calm,-,N/A,,Overcast,0,2013-07-10 13:16:00
5:36 AM,41.0,35.6,81,30.25,0.8,ENE,3.5,-,N/A,,Overcast,60,2013-07-10 13:36:00
5:56 AM,39.2,35.6,87,30.24,0.5,NE,5.8,-,N/A,,Overcast,50,2013-07-10 13:56:00
6:16 AM,37.4,33.8,87,30.24,0.5,ENE,4.6,-,N/A,,Overcast,60,2013-07-10 14:16:00
6:36 AM,37.4,33.8,87,30.24,5.0,NE,5.8,-,N/A,,Partly Cloudy,50,2013-07-10 14:36:00
6:56 AM,37.4,33.8,87,30.23,10.0,ENE,4.6,-,N/A,,Clear,60,2013-07-10 14:56:00
7:16 AM,39.2,35.6,87,30.22,10.0,NE,5.8,-,N/A,,Clear,50,2013-07-10 15:16:00
7:36 AM,41.0,35.6,81,30.22,10.0,Calm,Calm,-,N/A,,Clear,0,2013-07-10 15:36:00
7:56 AM,41.0,35.6,81,30.22,10.0,Calm,Calm,-,N/A,,Clear,0,2013-07-10 15:56:00
8:16 AM,42.8,37.4,81,30.22,10.0,Calm,Calm,-,N/A,,Clear,0,2013-07-10 16:16:00
8:36 AM,44.6,37.4,76,30.22,10.0,North,4.6,-,N/A,,Clear,10,2013-07-10 16:36:00
8:56 AM,44.6,37.4,76,30.21,10.0,Calm,Calm,-,N/A,,Clear,0,2013-07-10 16:56:00
9:16 AM,46.4,39.2,76,30.21,10.0,NNE,4.6,-,N/A,,Clear,30,2013-07-10 17:16:00
9:36 AM,46.4,39.2,76,30.21,10.0,Calm,Calm,-,N/A,,Clear,0,2013-07-10 17:36:00
9:56 AM,48.2,39.2,71,30.21,10.0,Calm,Calm,-,N/A,,Clear,0,2013-07-10 17:56:00
10:16 AM,48.2,41.0,76,30.21,10.0,NNW,5.8,-,N/A,,Clear,330,2013-07-10 18:16:00
10:36 AM,50.0,41.0,71,30.21,10.0,NNW,4.6,-,N/A,,Clear,330,2013-07-10 18:36:00
10:56 AM,51.8,42.8,71,30.21,10.0,North,5.8,-,N/A,,Clear,10,2013-07-10 18:56:00
11:16 AM,53.6,42.8,67,30.20,10.0,WNW,8.1,-,N/A,,Clear,300,2013-07-10 19:16:00
11:36 AM,55.4,42.8,63,30.20,10.0,NW,8.1,-,N/A,,Clear,320,2013-07-10 19:36:00
11:56 AM,55.4,42.8,63,30.20,10.0,NW,8.1,-,N/A,,Clear,320,2013-07-10 19:56:00
12:16 PM,55.4,42.8,63,30.19,10.0,NNW,8.1,-,N/A,,Clear,340,2013-07-10 20:16:00
12:36 PM,55.4,42.8,63,30.19,10.0,NNW,9.2,-,N/A,,Clear,330,2013-07-10 20:36:00
12:56 PM,55.4,41.0,58,30.18,10.0,NW,9.2,-,N/A,,Clear,320,2013-07-10 20:56:00
1:16 PM,55.4,41.0,58,30.18,10.0,NNW,10.4,-,N/A,,Clear,330,2013-07-10 21:16:00
1:36 PM,55.4,41.0,58,30.18,10.0,NNW,9.2,-,N/A,,Clear,340,2013-07-10 21:36:00
1:56 PM,57.2,41.0,55,30.18,10.0,NNW,11.5,-,N/A,,Clear,340,2013-07-10 21:56:00
2:16 PM,57.2,41.0,55,30.17,10.0,NNW,9.2,-,N/A,,Clear,340,2013-07-10 22:16:00
2:36 PM,57.2,42.8,59,30.17,10.0,North,10.4,-,N/A,,Clear,350,2013-07-10 22:36:00
2:56 PM,57.2,42.8,59,30.17,10.0,NW,11.5,-,N/A,,Clear,320,2013-07-10 22:56:00
3:16 PM,57.2,41.0,55,30.16,10.0,NNW,12.7,-,N/A,,Clear,340,2013-07-10 23:16:00
3:36 PM,55.4,41.0,58,30.16,10.0,NNW,10.4,-,N/A,,Clear,340,2013-07-10 23:36:00
3:56 PM,57.2,41.0,55,30.15,10.0,NNW,10.4,-,N/A,,Clear,340,2013-07-10 23:56:00
4:16 PM,57.2,41.0,55,30.15,10.0,North,10.4,-,N/A,,Clear,350,2013-07-11 00:16:00
4:36 PM,57.2,41.0,55,30.15,10.0,North,10.4,-,N/A,,Clear,360,2013-07-11 00:36:00
4:56 PM,57.2,41.0,55,30.14,10.0,North,13.8,-,N/A,,Clear,360,2013-07-11 00:56:00
5:16 PM,57.2,41.0,55,30.14,10.0,North,17.3,-,N/A,,Clear,360,2013-07-11 01:16:00
5:36 PM,57.2,41.0,55,30.13,10.0,North,16.1,-,N/A,,Clear,10,2013-07-11 01:36:00
5:56 PM,57.2,39.2,51,30.12,10.0,North,15.0,-,N/A,,Clear,10,2013-07-11 01:56:00
6:16 PM,59.0,41.0,51,30.12,10.0,North,16.1,-,N/A,,Clear,10,2013-07-11 02:16:00
6:36 PM,59.0,42.8,55,30.12,10.0,North,13.8,-,N/A,,Clear,10,2013-07-11 02:36:00
6:56 PM,59.0,42.8,55,30.12,10.0,North,15.0,-,N/A,,Clear,10,2013-07-11 02:56:00
7:16 PM,57.2,41.0,55,30.12,10.0,North,16.1,-,N/A,,Clear,360,2013-07-11 03:16:00
7:36 PM,55.4,41.0,58,30.12,10.0,North,15.0,-,N/A,,Clear,360,2013-07-11 03:36:00
7:56 PM,55.4,41.0,58,30.12,10.0,North,13.8,-,N/A,,Clear,360,2013-07-11 03:56:00
8:16 PM,55.4,39.2,54,30.12,10.0,North,13.8,-,N/A,,Clear,360,2013-07-11 04:16:00
8:36 PM,53.6,39.2,58,30.11,10.0,North,13.8,-,N/A,,Clear,10,2013-07-11 04:36:00
8:56 PM,53.6,39.2,58,30.11,10.0,North,10.4,-,N/A,,Clear,350,2013-07-11 04:56:00
9:16 PM,53.6,39.2,58,30.10,10.0,North,12.7,-,N/A,,Clear,10,2013-07-11 05:16:00
9:36 PM,53.6,39.2,58,30.10,10.0,North,10.4,-,N/A,,Clear,10,2013-07-11 05:36:00
9:56 PM,53.6,39.2,58,30.09,10.0,North,10.4,-,N/A,,Clear,10,2013-07-11 05:56:00
10:16 PM,51.8,39.2,62,30.08,10.0,North,9.2,-,N/A,,Clear,10,2013-07-11 06:16:00
10:36 PM,50.0,39.2,66,30.08,10.0,North,5.8,-,N/A,,Clear,10,2013-07-11 06:36:00
10:56 PM,48.2,39.2,71,30.07,10.0,North,6.9,-,N/A,,Clear,10,2013-07-11 06:56:00
11:16 PM,46.4,37.4,71,30.08,10.0,North,6.9,-,N/A,,Clear,10,2013-07-11 07:16:00
11:36 PM,44.6,37.4,76,30.07,10.0,North,9.2,-,N/A,,Clear,10,2013-07-11 07:36:00
11:56 PM,44.6,35.6,71,30.08,10.0,NNE,8.1,-,N/A,,Clear,20,2013-07-11 07:56:00